sat.trackr.live / text

‹ back to catalog

CALSPHERE 2

NORAD 902 · 1964-063E

PAYLOAD ACTIVE UNKNOWN

§ Identity

Operator
Country
US
Launch date
1964-10-06
Launch site
AFWTR
Launch vehicle
Mass (kg)
RCS (m²)
0.05

Purposes: military

External: N2YO · Heavens-Above · Gunter

§ Orbital elements

Epoch: 2026-05-25T02:16:07.532832Z

Period
106.44 min
Inclination
90.2373°
Eccentricity
0.0016801
Mean motion
13.52898282 rev/d
Perigee alt
1,049.1 km
Apogee alt
1,074.1 km
Semi-major
7,439.8 km
B*
7.5632e-5
RAAN
75.2390°
Arg perigee
297.8236°
Mean anomaly
78.4972°
Rev number
85,314

§ Raw data

CALSPHERE 21 00902U 64063E   26145.09453163  .00000059  00000+0  75632-4 0  99992 00902  90.2373  75.2390 0016801 297.8236  78.4972 13.52898282853142

JSON: /api/v1/satellites/902 · /tle

For live sub-satellite position, see the globe view (requires WebGL).

§ Visibility from observer

Set your observer location to see the next 7 days of passes ≥ 10°. The values pass through the URL so the page stays shareable.

No JS? Fill the form by hand. The geolocation button needs JavaScript.